SCP
0 0 0 0 0 0 0 0 0 0 0 0 0 0 0 0 0 0 0 0 0 0 0 0 0 0 0 0 0 0 0 0 0 0 0 1 1 1 1 1 1 1 1
0 0 0 0 0 0 0 0 0 0 0 0 0 0 0 0 0 0 0 0 0 0 0 0 0 0 0 0 1 1 1 0 0 0 0 1 1 1 1 1 1 1 1
0 0 0 0 0 0 0 0 0 0 0 0 0 0 0 0 0 0 0 0 0 0 0 0 0 0 0 0 0 0 1 1 1 0 0 1 1 1 1 1 2 1 1
0 0 0 0 0 0 0 0 0 0 0 0 0 0 0 0 0 0 0 0 0 0 0 0 0 0 0 0 0 0 0 0 0 0 0 0 0 1 1 1 2 1 2
0 0 0 0 0 1 0 1 0 0 0 0 0 0 0 0 0 0 0 0 0 0 0 0 0 0 0 0 0 0 0 0 1 0 0 0 0 1 1 1 2 2 2
0 0 0 0 0 0 1 1 1 1 1 1 0 0 0 0 0 0 0 0 0 0 0 0 0 0 0 0 0 0 0 0 0 1 0 0 1 1 1 1 1 1 1
0 0 0 0 0 0 0 0 0 0 0 0 0 0 0 0 0 0 0 0 0 0 0 0 0 0 0 0 0 0 0 0 0 0 1 1 1 0 0 1 1 1 2
0 0 0 0 0 0 0 0 0 0 0 0 0 0 1 0 0 0 0 0 0 0 0 0 0 0 0 0 0 0 0 0 0 0 1 1 1 1 0 1 1 1 1
0 0 0 0 0 0 0 0 0 0 0 0 -0 -0 0 0 0 0 0 0 0 -0 0 0 0 0 0 0 0 0 0 1 0 0 0 0 0 0 0 0 1 1 1
0 0 0 0 0 0 0 0 0 0 0 0 0 0 0 -0 0 0 0 -0 -0 -0 0 0 0 0 0 0 0 0 1 1 0 1 0 0 0 0 0 0 1 1 1
0 0 0 0 0 0 0 0 0 0 0 1 0 1 0 -0 0 -0 -0 0 -0 0 0 0 0 0 0 0 0 0 0 1 1 1 0 0 0 0 0 0 0 0 1
0 0 0 0 0 0 0 0 0 0 0 0 0 0 0 0 0 0 0 0 0 0 0 0 0 0 0 0 0 0 0 0 0 0 1 0 0 0 0 0 0 0 0
0 0 0 0 0 0 0 0 0 0 0 0 0 0 0 0 0 0 0 0 0 0 0 0 0 0 0 0 0 0 0 0 0 0 0 0 0 0 0 0 0 0 0
0 0 0 0 0 0 0 0 0 0 0 0 0 0 0 0 0 0 0 0 0 0 0 0 0 0 0 0 0 0 0 0 0 0 0 0 0 0 0 0 0 0 1
0 0 0 0 0 0 0 0 0 0 0 0 0 0 -0 0 0 0 0 0 0 0 0 0 0 0 0 0 0 0 0 0 0 0 0 0 0 0 0 0 0 0 0
0 0 0 0 0 0 0 0 0 0 0 0 0 0 0 0 0 -0 0 0 0 0 0 0 0 0 0 0 0 0 0 0 0 0 0 0 0 0 0 0 0 0 0
0 0 0 0 0 0 0 0 0 0 0 0 0 0 -0 -0 -0 0 -0 -0 0 0 0 0 0 0 0 0 0 0 0 0 0 0 0 0 0 0 0 0 0 0 0
0 0 0 0 0 0 0 0 0 0 0 0 0 0 0 0 -0 -0 -0 -0 -0 0 0 -0 0 0 0 0 0 0 0 0 0 0 0 0 0 0 0 0 0 0 0
0 0 0 0 0 0 0 0 0 0 0 0 0 0 0 -0 -0 -0 -0 -0 -0 -0 -0 0 0 0 0 0 0 0 0 0 0 0 0 0 0 0 0 0 0 0 0
0 0 0 0 0 0 0 0 0 0 0 0 0 0 0 0 -0 -0 -0 -0 -0 -0 -0 -0 -0 -0 0 0 0 0 0 0 0 0 0 0 0 0 0 0 0 0 0
0 0 0 0 0 0 0 0 0 0 0 0 0 0 0 0 -0 -0 -0 -0 -0 -0 0 0 0 0 0 0 0 0 0 0 0 0 0 0 0 0 0 0 0 0 0
0 0 0 0 0 0 0 0 0 0 0 0 0 0 0 0 0 0 0 -0 0 0 0 0 -0 -0 0 0 0 0 0 -0 -0 0 0 0 0 0 0 0 0 0 0
0 0 0 0 0 0 0 0 0 0 0 0 0 0 0 0 0 0 0 0 0 0 0 -0 -0 -0 0 0 0 0 0 0 0 0 0 0 0 0 0 0 0 0 0
0 0 0 0 0 0 0 0 0 0 0 0 0 0 0 0 0 0 0 0 0 0 0 0 -0 -0 0 0 0 0 0 0 0 0 0 0 0 0 0 0 0 0 0
0 0 0 0 0 0 0 0 0 0 0 0 0 0 0 0 0 0 0 0 0 0 0 0 0 -0 0 0 0 0 0 0 0 0 0 0 0 0 0 0 0 0 0
0 0 0 0 0 0 0 0 0 0 0 0 0 0 0 0 0 -0 0 0 0 0 0 0 0 0 -0 0 0 0 0 0 0 0 0 0 0 0 0 0 0 0 0
Wind_Speed_500mb
24 26 28 30 31 31 30 34 39 39 33 32 30 31 37 34 33 30 31 28 29 28 29 29 30 30 29 29 33 37 40 42 46 46 46 51 53 54 52 51 51 55 56
36 41 43 45 44 43 42 39 40 42 34 34 32 33 35 36 41 41 39 37 36 37 33 36 33 29 30 29 27 31 33 31 34 36 38 47 53 57 56 55 53 53 56
48 48 53 57 54 53 54 48 45 40 42 42 38 38 38 36 32 37 38 42 46 44 42 37 37 38 36 35 31 31 31 31 30 32 30 37 48 53 57 58 56 55 57
41 48 46 48 47 47 52 56 54 54 40 40 49 40 39 30 22 24 29 33 35 43 48 48 44 43 41 39 42 39 36 35 35 34 31 29 38 47 53 56 58 57 57
40 40 42 47 48 56 54 52 49 51 50 41 52 38 39 37 30 26 29 33 39 42 46 52 55 54 52 48 44 46 42 37 37 38 33 29 31 40 47 53 58 60 60
35 41 44 52 51 54 52 52 55 51 58 53 49 43 38 38 40 36 37 30 33 35 40 48 52 57 62 57 49 44 46 42 39 41 36 31 28 32 41 48 54 59 62
37 40 38 41 43 41 40 46 49 55 55 54 60 50 44 44 44 31 27 27 29 33 39 39 42 48 55 61 58 55 46 43 39 38 37 33 30 32 36 41 49 54 59
27 32 37 40 43 43 43 44 47 54 57 61 61 49 52 52 31 33 24 33 36 38 26 30 40 44 47 53 59 61 55 47 43 40 38 33 37 34 31 38 41 47 52
32 35 36 38 43 46 46 49 52 52 56 61 59 41 23 27 11 15 20 32 31 31 37 34 34 39 44 42 50 57 60 52 43 42 40 37 36 33 29 34 39 38 43
33 36 41 47 50 50 55 53 53 55 50 46 42 42 44 31 31 26 32 29 35 41 31 32 32 35 41 39 44 53 50 52 39 38 36 39 34 29 28 31 35 37 37
38 43 48 50 54 57 61 63 62 58 47 50 47 42 39 31 40 41 47 37 40 35 27 26 29 33 36 39 36 45 48 47 42 33 34 30 29 32 28 23 24 32 39
43 46 45 52 56 60 63 63 60 54 48 48 45 36 37 33 34 35 45 41 40 27 24 24 21 27 31 37 34 40 43 48 42 36 31 34 30 28 29 33 31 31 34
38 42 51 54 54 57 56 54 54 50 47 46 43 36 25 31 33 34 37 37 33 24 24 22 15 18 23 30 31 37 50 44 43 58 34 37 34 29 27 25 26 31 30
39 47 51 47 49 53 53 52 50 43 38 40 40 32 30 30 30 30 28 29 23 27 24 23 17 10 14 22 24 33 39 34 34 36 34 42 40 37 32 28 24 23 31
42 48 46 45 50 52 53 51 45 44 37 30 27 28 32 32 27 25 30 27 26 18 26 14 11 9 3 12 19 23 34 38 39 43 41 41 43 42 39 35 32 30 26
43 47 41 43 47 46 50 45 42 38 33 22 20 26 27 27 24 31 28 28 29 33 32 22 20 22 16 14 14 19 27 35 42 44 44 44 40 39 42 42 41 37 33
43 41 40 42 41 39 41 39 34 34 28 23 23 25 25 24 22 24 26 31 36 41 46 38 31 24 16 20 24 24 22 21 26 38 41 41 42 40 36 39 41 39 37
39 37 37 37 38 38 40 42 37 33 32 26 24 27 27 28 35 38 38 41 40 43 43 44 38 28 18 18 21 22 24 23 25 25 33 36 37 40 37 41 38 38 38
36 31 34 37 39 40 39 40 41 40 31 32 30 29 29 31 34 35 40 37 34 40 40 40 37 27 19 18 19 22 25 27 26 29 27 31 33 35 36 36 37 37 36
35 32 33 37 39 42 42 42 41 42 38 34 30 24 22 24 26 27 29 30 30 31 31 32 33 30 21 19 24 22 26 26 24 29 33 35 40 40 40 41 40 41 42
37 36 34 35 40 42 40 46 46 44 38 28 18 20 18 16 11 14 19 18 19 22 26 29 29 22 22 20 22 22 23 24 24 30 24 25 29 34 44 47 47 46 42
40 38 35 36 38 42 44 47 49 43 33 23 15 12 14 11 9 7 6 10 14 18 22 23 23 24 24 21 21 23 29 32 34 31 29 26 36 41 49 50 46 43 39
43 42 41 38 41 43 46 52 47 37 24 16 15 16 14 12 13 15 15 14 16 21 25 26 26 23 22 24 29 26 27 30 29 26 17 22 22 26 24 31 36 40 41
44 46 44 42 42 44 47 53 41 26 20 16 14 14 12 16 21 20 19 21 23 20 18 21 27 29 32 28 28 27 22 15 16 18 18 20 16 16 15 16 19 26 31
47 47 48 45 44 45 48 52 32 15 16 8 8 10 13 17 23 27 26 23 17 15 12 14 12 14 17 20 22 25 22 22 21 25 24 23 19 16 28 28 29 25 28
52 48 50 47 44 46 47 49 20 14 10 7 12 13 15 13 14 12 5 6 4 3 6 9 10 9 10 13 13 15 16 23 33 29 20 22 46 41 22 23 29 25 24
Wind_Direction_500mb
263 272 274 272 272 279 291 289 303 295 294 294 296 284 288 287 283 278 277 271 259 270 261 248 242 244 244 248 255 258 263 267 268 268 262 249 241 236 234 235 232 230 227
269 270 274 275 273 275 283 282 284 289 281 286 288 288 282 287 290 283 276 273 262 259 265 261 256 250 246 244 247 254 255 258 266 267 265 252 243 237 233 232 233 233 234
278 281 279 279 280 283 287 274 275 267 276 283 286 279 277 284 298 286 274 269 272 266 263 260 254 256 258 254 255 258 257 260 259 266 273 256 244 240 234 232 233 232 235
281 284 283 289 288 286 282 278 275 268 263 282 284 278 278 280 289 288 292 279 274 265 264 259 257 255 255 255 252 252 258 263 259 258 266 270 252 244 238 233 231 233 235
291 286 292 293 296 295 285 279 275 277 273 261 266 268 264 274 283 282 304 300 286 272 266 261 258 257 256 255 255 244 252 258 260 257 259 265 260 247 241 236 234 232 233
290 294 293 298 290 295 288 282 278 275 272 266 259 259 255 263 271 276 288 298 313 297 273 268 260 254 257 255 254 248 246 251 257 257 248 254 259 254 246 240 236 234 232
302 305 301 297 296 301 295 289 284 279 279 272 265 260 257 256 258 260 274 288 307 314 282 275 273 263 255 250 250 250 251 253 248 254 247 257 263 261 249 245 240 236 236
307 314 318 322 319 316 310 304 299 297 292 292 281 281 262 250 249 252 251 291 297 324 293 278 272 268 265 259 250 246 247 251 245 245 245 260 267 256 249 244 243 239 238
324 326 332 331 325 321 314 309 307 307 302 299 292 284 303 301 249 248 274 296 287 309 308 269 271 275 265 266 256 247 246 238 238 238 249 259 259 245 246 243 240 239 239
325 326 325 323 323 322 320 317 314 308 300 294 291 292 280 285 314 315 294 281 286 305 293 273 279 277 266 267 260 238 232 223 231 231 246 250 253 244 245 242 239 238 238
325 321 323 324 323 323 320 317 314 311 300 291 288 287 290 277 273 263 278 281 294 304 302 288 281 277 268 256 264 231 218 212 213 229 247 251 255 247 244 231 238 240 237
316 318 325 328 329 328 327 323 319 312 303 298 292 289 280 274 272 269 274 282 289 304 302 299 281 274 266 249 254 224 213 217 213 224 235 256 256 251 247 247 244 240 239
325 331 334 333 333 333 332 327 323 317 307 297 294 286 282 278 276 271 269 283 284 304 305 306 300 284 265 246 244 222 214 225 248 229 237 251 247 247 246 247 244 241 236
332 334 334 335 338 340 338 334 330 324 313 307 291 289 282 284 285 269 276 283 297 295 294 304 304 306 261 239 239 223 226 227 233 224 232 236 240 240 247 245 246 246 244
331 331 335 338 339 338 339 337 337 331 327 320 305 294 288 279 281 283 287 282 279 287 297 290 302 321 334 247 241 233 231 234 232 233 232 240 237 241 249 244 246 251 252
325 330 334 340 340 346 341 341 339 328 330 337 314 308 308 289 288 287 285 272 268 276 279 293 289 289 266 253 251 238 240 236 232 234 236 235 238 239 243 245 246 246 249
325 329 331 336 339 340 342 346 348 336 325 327 314 310 303 293 290 281 276 275 274 276 280 286 285 294 292 264 254 254 251 247 243 236 235 235 240 242 245 239 241 241 245
327 329 333 339 342 337 332 332 334 334 334 324 310 299 294 283 281 281 279 278 275 280 278 278 283 292 284 270 258 255 250 249 244 244 235 235 238 243 246 236 234 238 244
329 332 334 339 339 337 338 336 329 331 323 318 313 302 299 289 280 273 275 274 270 277 274 270 276 279 271 270 262 255 254 251 250 244 243 239 241 240 235 231 233 238 240
329 324 332 335 337 336 335 332 328 326 323 319 317 314 311 301 287 276 270 272 273 269 268 267 269 272 266 265 262 262 265 259 257 253 249 244 247 244 239 238 242 247 248
323 321 324 329 333 334 332 327 326 324 323 322 321 321 321 326 315 274 264 266 267 265 266 265 263 258 256 259 261 266 262 259 258 256 255 253 250 250 245 248 248 247 242
318 320 317 320 327 332 334 325 323 319 319 314 313 327 320 328 336 315 271 261 269 271 262 249 257 255 260 259 266 266 266 261 261 257 250 250 257 256 254 244 238 240 235
310 314 316 311 318 327 328 327 322 317 310 310 297 296 302 294 300 306 287 283 290 288 276 270 266 262 267 268 276 268 274 270 245 236 235 244 255 244 235 231 236 235 228
302 311 310 310 312 325 325 326 319 309 299 304 298 290 280 276 288 293 286 287 294 296 288 286 269 264 267 272 265 265 269 248 217 227 212 229 233 217 214 217 216 210 207
301 304 308 310 308 320 326 327 317 293 301 317 331 312 293 287 290 291 287 282 287 295 299 295 289 269 266 268 259 251 245 218 214 204 206 224 200 179 156 162 165 185 189
299 299 306 308 307 314 322 326 308 292 282 295 328 321 314 291 302 311 288 287 300 346 61 48 30 350 309 263 228 215 226 212 200 179 201 184 151 137 126 145 134 155 171
Wind_Speed_850mb
24 26 28 30 31 31 30 34 39 39 33 32 30 31 37 34 33 30 31 28 29 28 29 29 30 30 29 29 33 37 40 42 46 46 46 51 53 54 52 51 51 55 56
36 41 43 45 44 43 42 39 40 42 34 34 32 33 35 36 41 41 39 37 36 37 33 36 33 29 30 29 27 31 33 31 34 36 38 47 53 57 56 55 53 53 56
48 48 53 57 54 53 54 48 45 40 42 42 38 38 38 36 32 37 38 42 46 44 42 37 37 38 36 35 31 31 31 31 30 32 30 37 48 53 57 58 56 55 57
41 48 46 48 47 47 52 56 54 54 40 40 49 40 39 30 22 24 29 33 35 43 48 48 44 43 41 39 42 39 36 35 35 34 31 29 38 47 53 56 58 57 57
40 40 42 47 48 56 54 52 49 51 50 41 52 38 39 37 30 26 29 33 39 42 46 52 55 54 52 48 44 46 42 37 37 38 33 29 31 40 47 53 58 60 60
35 41 44 52 51 54 52 52 55 51 58 53 49 43 38 38 40 36 37 30 33 35 40 48 52 57 62 57 49 44 46 42 39 41 36 31 28 32 41 48 54 59 62
37 40 38 41 43 41 40 46 49 55 55 54 60 50 44 44 44 31 27 27 29 33 39 39 42 48 55 61 58 55 46 43 39 38 37 33 30 32 36 41 49 54 59
27 32 37 40 43 43 43 44 47 54 57 61 61 49 52 52 31 33 24 33 36 38 26 30 40 44 47 53 59 61 55 47 43 40 38 33 37 34 31 38 41 47 52
32 35 36 38 43 46 46 49 52 52 56 61 59 41 23 27 11 15 20 32 31 31 37 34 34 39 44 42 50 57 60 52 43 42 40 37 36 33 29 34 39 38 43
33 36 41 47 50 50 55 53 53 55 50 46 42 42 44 31 31 26 32 29 35 41 31 32 32 35 41 39 44 53 50 52 39 38 36 39 34 29 28 31 35 37 37
38 43 48 50 54 57 61 63 62 58 47 50 47 42 39 31 40 41 47 37 40 35 27 26 29 33 36 39 36 45 48 47 42 33 34 30 29 32 28 23 24 32 39
43 46 45 52 56 60 63 63 60 54 48 48 45 36 37 33 34 35 45 41 40 27 24 24 21 27 31 37 34 40 43 48 42 36 31 34 30 28 29 33 31 31 34
38 42 51 54 54 57 56 54 54 50 47 46 43 36 25 31 33 34 37 37 33 24 24 22 15 18 23 30 31 37 50 44 43 58 34 37 34 29 27 25 26 31 30
39 47 51 47 49 53 53 52 50 43 38 40 40 32 30 30 30 30 28 29 23 27 24 23 17 10 14 22 24 33 39 34 34 36 34 42 40 37 32 28 24 23 31
42 48 46 45 50 52 53 51 45 44 37 30 27 28 32 32 27 25 30 27 26 18 26 14 11 9 3 12 19 23 34 38 39 43 41 41 43 42 39 35 32 30 26
43 47 41 43 47 46 50 45 42 38 33 22 20 26 27 27 24 31 28 28 29 33 32 22 20 22 16 14 14 19 27 35 42 44 44 44 40 39 42 42 41 37 33
43 41 40 42 41 39 41 39 34 34 28 23 23 25 25 24 22 24 26 31 36 41 46 38 31 24 16 20 24 24 22 21 26 38 41 41 42 40 36 39 41 39 37
39 37 37 37 38 38 40 42 37 33 32 26 24 27 27 28 35 38 38 41 40 43 43 44 38 28 18 18 21 22 24 23 25 25 33 36 37 40 37 41 38 38 38
36 31 34 37 39 40 39 40 41 40 31 32 30 29 29 31 34 35 40 37 34 40 40 40 37 27 19 18 19 22 25 27 26 29 27 31 33 35 36 36 37 37 36
35 32 33 37 39 42 42 42 41 42 38 34 30 24 22 24 26 27 29 30 30 31 31 32 33 30 21 19 24 22 26 26 24 29 33 35 40 40 40 41 40 41 42
37 36 34 35 40 42 40 46 46 44 38 28 18 20 18 16 11 14 19 18 19 22 26 29 29 22 22 20 22 22 23 24 24 30 24 25 29 34 44 47 47 46 42
40 38 35 36 38 42 44 47 49 43 33 23 15 12 14 11 9 7 6 10 14 18 22 23 23 24 24 21 21 23 29 32 34 31 29 26 36 41 49 50 46 43 39
43 42 41 38 41 43 46 52 47 37 24 16 15 16 14 12 13 15 15 14 16 21 25 26 26 23 22 24 29 26 27 30 29 26 17 22 22 26 24 31 36 40 41
44 46 44 42 42 44 47 53 41 26 20 16 14 14 12 16 21 20 19 21 23 20 18 21 27 29 32 28 28 27 22 15 16 18 18 20 16 16 15 16 19 26 31
47 47 48 45 44 45 48 52 32 15 16 8 8 10 13 17 23 27 26 23 17 15 12 14 12 14 17 20 22 25 22 22 21 25 24 23 19 16 28 28 29 25 28
52 48 50 47 44 46 47 49 20 14 10 7 12 13 15 13 14 12 5 6 4 3 6 9 10 9 10 13 13 15 16 23 33 29 20 22 46 41 22 23 29 25 24
Wind_Direction_850mb
263 272 274 272 272 279 291 289 303 295 294 294 296 284 288 287 283 278 277 271 259 270 261 248 242 244 244 248 255 258 263 267 268 268 262 249 241 236 234 235 232 230 227
269 270 274 275 273 275 283 282 284 289 281 286 288 288 282 287 290 283 276 273 262 259 265 261 256 250 246 244 247 254 255 258 266 267 265 252 243 237 233 232 233 233 234
278 281 279 279 280 283 287 274 275 267 276 283 286 279 277 284 298 286 274 269 272 266 263 260 254 256 258 254 255 258 257 260 259 266 273 256 244 240 234 232 233 232 235
281 284 283 289 288 286 282 278 275 268 263 282 284 278 278 280 289 288 292 279 274 265 264 259 257 255 255 255 252 252 258 263 259 258 266 270 252 244 238 233 231 233 235
291 286 292 293 296 295 285 279 275 277 273 261 266 268 264 274 283 282 304 300 286 272 266 261 258 257 256 255 255 244 252 258 260 257 259 265 260 247 241 236 234 232 233
290 294 293 298 290 295 288 282 278 275 272 266 259 259 255 263 271 276 288 298 313 297 273 268 260 254 257 255 254 248 246 251 257 257 248 254 259 254 246 240 236 234 232
302 305 301 297 296 301 295 289 284 279 279 272 265 260 257 256 258 260 274 288 307 314 282 275 273 263 255 250 250 250 251 253 248 254 247 257 263 261 249 245 240 236 236
307 314 318 322 319 316 310 304 299 297 292 292 281 281 262 250 249 252 251 291 297 324 293 278 272 268 265 259 250 246 247 251 245 245 245 260 267 256 249 244 243 239 238
324 326 332 331 325 321 314 309 307 307 302 299 292 284 303 301 249 248 274 296 287 309 308 269 271 275 265 266 256 247 246 238 238 238 249 259 259 245 246 243 240 239 239
325 326 325 323 323 322 320 317 314 308 300 294 291 292 280 285 314 315 294 281 286 305 293 273 279 277 266 267 260 238 232 223 231 231 246 250 253 244 245 242 239 238 238
325 321 323 324 323 323 320 317 314 311 300 291 288 287 290 277 273 263 278 281 294 304 302 288 281 277 268 256 264 231 218 212 213 229 247 251 255 247 244 231 238 240 237
316 318 325 328 329 328 327 323 319 312 303 298 292 289 280 274 272 269 274 282 289 304 302 299 281 274 266 249 254 224 213 217 213 224 235 256 256 251 247 247 244 240 239
325 331 334 333 333 333 332 327 323 317 307 297 294 286 282 278 276 271 269 283 284 304 305 306 300 284 265 246 244 222 214 225 248 229 237 251 247 247 246 247 244 241 236
332 334 334 335 338 340 338 334 330 324 313 307 291 289 282 284 285 269 276 283 297 295 294 304 304 306 261 239 239 223 226 227 233 224 232 236 240 240 247 245 246 246 244
331 331 335 338 339 338 339 337 337 331 327 320 305 294 288 279 281 283 287 282 279 287 297 290 302 321 334 247 241 233 231 234 232 233 232 240 237 241 249 244 246 251 252
325 330 334 340 340 346 341 341 339 328 330 337 314 308 308 289 288 287 285 272 268 276 279 293 289 289 266 253 251 238 240 236 232 234 236 235 238 239 243 245 246 246 249
325 329 331 336 339 340 342 346 348 336 325 327 314 310 303 293 290 281 276 275 274 276 280 286 285 294 292 264 254 254 251 247 243 236 235 235 240 242 245 239 241 241 245
327 329 333 339 342 337 332 332 334 334 334 324 310 299 294 283 281 281 279 278 275 280 278 278 283 292 284 270 258 255 250 249 244 244 235 235 238 243 246 236 234 238 244
329 332 334 339 339 337 338 336 329 331 323 318 313 302 299 289 280 273 275 274 270 277 274 270 276 279 271 270 262 255 254 251 250 244 243 239 241 240 235 231 233 238 240
329 324 332 335 337 336 335 332 328 326 323 319 317 314 311 301 287 276 270 272 273 269 268 267 269 272 266 265 262 262 265 259 257 253 249 244 247 244 239 238 242 247 248
323 321 324 329 333 334 332 327 326 324 323 322 321 321 321 326 315 274 264 266 267 265 266 265 263 258 256 259 261 266 262 259 258 256 255 253 250 250 245 248 248 247 242
318 320 317 320 327 332 334 325 323 319 319 314 313 327 320 328 336 315 271 261 269 271 262 249 257 255 260 259 266 266 266 261 261 257 250 250 257 256 254 244 238 240 235
310 314 316 311 318 327 328 327 322 317 310 310 297 296 302 294 300 306 287 283 290 288 276 270 266 262 267 268 276 268 274 270 245 236 235 244 255 244 235 231 236 235 228
302 311 310 310 312 325 325 326 319 309 299 304 298 290 280 276 288 293 286 287 294 296 288 286 269 264 267 272 265 265 269 248 217 227 212 229 233 217 214 217 216 210 207
301 304 308 310 308 320 326 327 317 293 301 317 331 312 293 287 290 291 287 282 287 295 299 295 289 269 266 268 259 251 245 218 214 204 206 224 200 179 156 162 165 185 189
299 299 306 308 307 314 322 326 308 292 282 295 328 321 314 291 302 311 288 287 300 346 61 48 30 350 309 263 228 215 226 212 200 179 201 184 151 137 126 145 134 155 171